Location: Bijele Vode
(45.2833°N, 16.2000°E)
Time: 19:50:05
(UTC+00:00)

Cosmos 1743 - Pass Details

Date: 18 September 2020
Orbit: 510 x 527 km, 82.6° (Epoch: 27 October)

Event Time Altitude Azimuth Distance (km) Brightness Sun altitude
Rises 17:40:10 0° 204° (SSW) 2,636 6.5 -7.9°
Reaches altitude 10° 17:42:23 10° 212° (SSW) 1,750 5.7 -8.3°
Maximum altitude 17:46:01 40° 283° (WNW) 780 4.3 -8.9°
Drops below altitude 10° 17:49:39 10° 354° (N) 1,755 5.6 -9.5°
Sets 17:51:54 0° 2° (N) 2,644 6.4 -9.9°
